| time (UTC) | temp C | wind direction | speed KPH | gust KPH | rain 1hr cm | rain 24hr cm | rain mn cm | humidity % | barometer mb |
| 20260507225529 | 16 | 286 | 0.0 | 4.8 | 0.00 | 1.24 | 0.00 | 69 | 1007.4 |
| 20260507225049 | 16 | 236 | 0.0 | 3.2 | 0.00 | 1.24 | 0.00 | 70 | 1007.3 |
| 20260507224525 | 16 | 302 | 0.0 | 9.7 | 0.00 | 1.27 | 0.00 | 68 | 1007.2 |
| 20260507224011 | 16 | 290 | 3.2 | 9.7 | 0.00 | 1.27 | 0.00 | 68 | 1007.2 |
| 20260507223539 | 16 | 9 | 0.0 | 1.6 | 0.00 | 1.27 | 0.00 | 71 | 1007.1 |
| 20260507223013 | 16 | 58 | 0.0 | 1.6 | 0.00 | 1.27 | 0.00 | 69 | 1007.0 |
| 20260507222551 | 16 | 58 | 0.0 | 1.6 | 0.00 | 1.27 | 0.00 | 69 | 1007.0 |
| 20260507222033 | 16 | 13 | 0.0 | 1.6 | 0.00 | 1.27 | 0.00 | 69 | 1006.9 |
| 20260507221503 | 16 | 13 | 0.0 | 1.6 | 0.00 | 1.27 | 0.00 | 68 | 1006.8 |
| 20260507221040 | 16 | 13 | 0.0 | 1.6 | 0.00 | 1.27 | 0.00 | 67 | 1006.8 |
| 20260507220521 | 16 | 5 | 0.0 | 3.2 | 0.00 | 1.27 | 0.00 | 67 | 1006.7 |
| 20260507220051 | 17 | 337 | 0.0 | 4.8 | 0.00 | 1.27 | 0.00 | 65 | 1006.7 |
| 20260507215536 | 17 | 294 | 0.0 | 4.8 | 0.00 | 1.27 | 0.00 | 64 | 1006.6 |
| 20260507215052 | 17 | 290 | 1.6 | 4.8 | 0.00 | 1.27 | 0.00 | 63 | 1006.6 |
| 20260507214535 | 17 | 294 | 0.0 | 4.8 | 0.00 | 1.27 | 0.00 | 65 | 1006.7 |
| 20260507214055 | 18 | 178 | 1.6 | 4.8 | 0.00 | 1.27 | 0.00 | 61 | 1006.7 |
| 20260507213517 | 18 | 80 | 0.0 | 3.2 | 0.00 | 1.27 | 0.00 | 62 | 1006.7 |
| 20260507213103 | 18 | 294 | 1.6 | 8.0 | 0.00 | 1.27 | 0.00 | 59 | 1006.6 |
| 20260507212512 | 18 | 145 | 1.6 | 6.4 | 0.00 | 1.27 | 0.00 | 61 | 1006.5 |
| 20260507212049 | 18 | 297 | 0.0 | 3.2 | 0.00 | 1.27 | 0.00 | 61 | 1006.5 |
| 20260507211525 | 18 | 76 | 0.0 | 4.8 | 0.00 | 1.27 | 0.00 | 60 | 1006.5 |
| 20260507211058 | 18 | 317 | 0.0 | 4.8 | 0.00 | 1.27 | 0.00 | 61 | 1006.6 |
| 20260507211007 | 18 | 82 | 0.0 | 4.8 | 0.00 | 1.27 | 0.00 | 63 | 1006.6 |
| 20260507210539 | 18 | 105 | 0.0 | 6.4 | 0.00 | 1.27 | 0.00 | 59 | 1006.5 |
| 20260507210008 | 18 | 30 | 0.0 | 6.4 | 0.00 | 1.27 | 0.00 | 61 | 1006.5 |
| 20260507205546 | 18 | 231 | 1.6 | 6.4 | 0.00 | 1.27 | 0.00 | 59 | 1006.5 |
| 20260507205008 | 18 | 30 | 0.0 | 6.4 | 0.00 | 1.27 | 0.00 | 60 | 1006.5 |
| 20260507204540 | 18 | 109 | 0.0 | 4.8 | 0.00 | 1.27 | 0.00 | 61 | 1006.5 |
| 20260507204056 | 18 | 98 | 0.0 | 6.4 | 0.00 | 1.27 | 0.00 | 60 | 1006.5 |
| 20260507203534 | 18 | 319 | 3.2 | 6.4 | 0.00 | 1.27 | 0.00 | 60 | 1006.6 |
| 20260507203017 | 18 | 273 | 1.6 | 6.4 | 0.00 | 1.27 | 0.00 | 59 | 1006.6 |
| 20260507202554 | 17 | 91 | 0.0 | 6.4 | 0.00 | 1.27 | 0.00 | 60 | 1006.6 |
| 20260507202014 | 17 | 290 | 0.0 | 8.0 | 0.00 | 1.27 | 0.00 | 59 | 1006.6 |
| 20260507201549 | 17 | 296 | 3.2 | 8.0 | 0.00 | 1.27 | 0.00 | 60 | 1006.6 |
| 20260507201029 | 17 | 221 | 1.6 | 4.8 | 0.00 | 1.27 | 0.00 | 61 | 1006.6 |
| 20260507200508 | 17 | 303 | 0.0 | 4.8 | 0.00 | 1.27 | 0.00 | 59 | 1006.8 |
| 20260507200038 | 17 | 284 | 0.0 | 4.8 | 0.00 | 1.27 | 0.00 | 59 | 1006.9 |
| 20260507195516 | 17 | 297 | 0.0 | 4.8 | 0.00 | 1.27 | 0.00 | 59 | 1006.9 |
| 20260507195050 | 16 | 74 | 0.0 | 1.6 | 0.00 | 1.27 | 0.00 | 59 | 1007.0 |
| 20260507194559 | 16 | 114 | 0.0 | 6.4 | 0.00 | 1.27 | 0.00 | 59 | 1007.1 |
| 20260507194007 | 16 | 350 | 1.6 | 6.4 | 0.00 | 1.27 | 0.00 | 57 | 1007.1 |
| 20260507193542 | 16 | 55 | 0.0 | 3.2 | 0.00 | 1.27 | 0.00 | 59 | 1007.1 |
| 20260507193028 | 16 | 75 | 0.0 | 4.8 | 0.00 | 1.27 | 0.00 | 59 | 1007.3 |
| 20260507192559 | 16 | 81 | 1.6 | 4.8 | 0.00 | 1.27 | 0.00 | 58 | 1007.4 |
| 20260507192040 | 16 | 85 | 0.0 | 4.8 | 0.00 | 1.27 | 0.00 | 59 | 1007.3 |
| 20260507191529 | 16 | 176 | 0.0 | 3.2 | 0.00 | 1.27 | 0.00 | 59 | 1007.6 |
| 20260507191052 | 16 | 134 | 0.0 | 3.2 | 0.00 | 1.27 | 0.00 | 61 | 1007.7 |
| 20260507190528 | 16 | 146 | 0.0 | 4.8 | 0.00 | 1.27 | 0.00 | 61 | 1007.7 |
| 20260507190011 | 16 | 252 | 0.0 | 4.8 | 0.00 | 1.27 | 0.00 | 61 | 1007.7 |
| 20260507185547 | 16 | 92 | 0.0 | 6.4 | 0.00 | 1.27 | 0.00 | 59 | 1007.8 |
| 20260507185028 | 16 | 265 | 0.0 | 6.4 | 0.00 | 1.27 | 0.00 | 60 | 1007.9 |
| 20260507184506 | 16 | 288 | 0.0 | 3.2 | 0.00 | 1.27 | 0.00 | 59 | 1007.9 |
| 20260507184042 | 16 | 119 | 0.0 | 3.2 | 0.00 | 1.27 | 0.00 | 62 | 1007.9 |
| 20260507183524 | 16 | 98 | 0.0 | 6.4 | 0.00 | 1.27 | 0.00 | 63 | 1007.9 |
| 20260507183058 | 16 | 115 | 0.0 | 6.4 | 0.00 | 1.27 | 0.00 | 60 | 1007.8 |
| 20260507182540 | 16 | 21 | 0.0 | 3.2 | 0.00 | 1.27 | 0.00 | 58 | 1007.8 |
| 20260507182017 | 17 | 26 | 0.0 | 3.2 | 0.00 | 1.27 | 0.00 | 58 | 1008.0 |
| 20260507181553 | 17 | 345 | 0.0 | 3.2 | 0.00 | 1.27 | 0.00 | 58 | 1007.9 |
| 20260507181030 | 16 | 229 | 0.0 | 6.4 | 0.00 | 1.27 | 0.00 | 59 | 1008.0 |
| 20260507180601 | 16 | 311 | 1.6 | 9.7 | 0.00 | 1.27 | 0.00 | 62 | 1008.1 |
| 20260507180504 | 16 | 238 | 1.6 | 9.7 | 0.00 | 1.27 | 0.00 | 58 | 1008.1 |
| 20260507180037 | 16 | 215 | 1.6 | 9.7 | 0.00 | 1.27 | 0.00 | 64 | 1008.2 |
| 20260507175517 | 16 | 9 | 0.0 | 4.8 | 0.00 | 1.27 | 0.00 | 61 | 1008.2 |
| 20260507175046 | 15 | 264 | 1.6 | 4.8 | 0.00 | 1.27 | 0.00 | 61 | 1008.3 |
| 20260507174526 | 15 | 119 | 0.0 | 3.2 | 0.00 | 1.27 | 0.00 | 62 | 1008.5 |
| 20260507174004 | 15 | 43 | 0.0 | 6.4 | 0.00 | 1.27 | 0.00 | 61 | 1008.6 |
| 20260507173540 | 15 | 190 | 3.2 | 6.4 | 0.00 | 1.27 | 0.00 | 61 | 1008.7 |
| 20260507173029 | 15 | 144 | 1.6 | 6.4 | 0.00 | 1.27 | 0.00 | 62 | 1008.7 |
| 20260507172557 | 15 | 84 | 1.6 | 6.4 | 0.00 | 1.27 | 0.00 | 66 | 1008.8 |
| 20260507172039 | 14 | 194 | 0.0 | 4.8 | 0.00 | 1.27 | 0.00 | 67 | 1008.8 |
| 20260507171538 | 14 | 91 | 0.0 | 6.4 | 0.00 | 1.27 | 0.00 | 66 | 1009.0 |
| 20260507171058 | 14 | 156 | 1.6 | 6.4 | 0.00 | 1.27 | 0.00 | 66 | 1009.1 |
| 20260507171002 | 14 | 87 | 1.6 | 8.0 | 0.00 | 1.27 | 0.00 | 65 | 1009.1 |
| 20260507170538 | 14 | 101 | 1.6 | 4.8 | 0.00 | 1.27 | 0.00 | 66 | 1009.1 |
| 20260507170016 | 14 | 285 | 0.0 | 4.8 | 0.00 | 1.27 | 0.00 | 65 | 1009.3 |
| 20260507165536 | 13 | 133 | 1.6 | 4.8 | 0.00 | 1.27 | 0.00 | 66 | 1009.3 |
| 20260507165012 | 14 | 26 | 0.0 | 4.8 | 0.00 | 1.27 | 0.00 | 65 | 1009.3 |
| 20260507164553 | 14 | 78 | 0.0 | 9.7 | 0.00 | 1.27 | 0.00 | 64 | 1009.4 |
| 20260507164028 | 14 | 239 | 4.8 | 9.7 | 0.00 | 1.27 | 0.00 | 67 | 1009.4 |
| 20260507163506 | 13 | 10 | 0.0 | 4.8 | 0.00 | 1.27 | 0.00 | 69 | 1009.4 |
| 20260507163047 | 13 | 213 | 0.0 | 3.2 | 0.00 | 1.27 | 0.00 | 69 | 1009.6 |
| 20260507162522 | 13 | 299 | 0.0 | 6.4 | 0.00 | 1.27 | 0.00 | 72 | 1009.7 |
| 20260507162058 | 12 | 11 | 1.6 | 6.4 | 0.00 | 1.27 | 0.00 | 71 | 1009.8 |
| 20260507161553 | 12 | 80 | 3.2 | 6.4 | 0.00 | 1.27 | 0.00 | 69 | 1009.9 |
| 20260507161018 | 12 | 5 | 0.0 | 6.4 | 0.00 | 1.27 | 0.00 | 72 | 1010.0 |
| 20260507160550 | 12 | 299 | 0.0 | 6.4 | 0.00 | 1.27 | 0.00 | 71 | 1010.1 |
| 20260507160037 | 12 | 355 | 0.0 | 3.2 | 0.00 | 1.27 | 0.00 | 75 | 1010.2 |
| 20260507155511 | 12 | 302 | 0.0 | 6.4 | 0.00 | 1.27 | 0.00 | 73 | 1010.4 |
| 20260507155044 | 12 | 234 | 1.6 | 6.4 | 0.00 | 1.27 | 0.00 | 74 | 1010.5 |
| 20260507154521 | 12 | 73 | 1.6 | 4.8 | 0.00 | 1.27 | 0.00 | 72 | 1010.5 |
| 20260507154044 | 12 | 350 | 1.6 | 4.8 | 0.00 | 1.27 | 0.00 | 73 | 1010.6 |
| 20260507153521 | 12 | 345 | 0.0 | 9.7 | 0.00 | 1.27 | 0.00 | 74 | 1010.5 |
| 20260507153049 | 12 | 75 | 0.0 | 9.7 | 0.00 | 1.27 | 0.00 | 74 | 1010.5 |
| 20260507152526 | 11 | 101 | 1.6 | 6.4 | 0.00 | 1.27 | 0.00 | 75 | 1010.3 |
| 20260507152058 | 11 | 9 | 0.0 | 3.2 | 0.00 | 1.27 | 0.00 | 75 | 1010.5 |
| 20260507151540 | 11 | 340 | 0.0 | 9.7 | 0.00 | 1.27 | 0.00 | 78 | 1010.5 |
| 20260507151015 | 11 | 87 | 0.0 | 9.7 | 0.00 | 1.27 | 0.00 | 78 | 1010.6 |
| 20260507150549 | 11 | 5 | 0.0 | 6.4 | 0.00 | 1.27 | 0.00 | 79 | 1010.5 |
| 20260507150030 | 11 | 25 | 1.6 | 6.4 | 0.00 | 1.27 | 0.00 | 80 | 1010.8 |
| 20260507145600 | 11 | 24 | 0.0 | 6.4 | 0.00 | 1.27 | 0.00 | 80 | 1010.9 |
| 20260507145509 | 11 | 53 | 0.0 | 6.4 | 0.00 | 1.27 | 0.00 | 80 | 1010.9 |
| 20260507145041 | 11 | 320 | 0.0 | 6.4 | 0.00 | 1.27 | 0.00 | 81 | 1010.8 |
| 20260507144601 | 11 | 68 | 0.0 | 3.2 | 0.00 | 1.27 | 1.27 | 81 | 1010.9 |
| 20260507144505 | 11 | 71 | 0.0 | 3.2 | 0.00 | 1.27 | 1.27 | 81 | 1010.9 |
| 20260507144039 | 11 | 59 | 0.0 | 3.2 | 0.00 | 1.27 | 1.27 | 82 | 1010.9 |
| 20260507143521 | 11 | 9 | 0.0 | 8.0 | 0.00 | 1.27 | 1.27 | 83 | 1010.8 |
| 20260507143054 | 11 | 5 | 3.2 | 8.0 | 0.00 | 1.27 | 1.27 | 83 | 1010.9 |
| 20260507142530 | 11 | 81 | 0.0 | 4.8 | 0.00 | 1.27 | 1.27 | 84 | 1011.2 |
| 20260507142012 | 11 | 68 | 0.0 | 1.6 | 0.00 | 1.27 | 1.27 | 84 | 1011.2 |
| 20260507141604 | 11 | 78 | 0.0 | 3.2 | 0.00 | 1.27 | 1.27 | 85 | 1011.2 |
| 20260507141013 | 11 | 82 | 0.0 | 3.2 | 0.00 | 1.27 | 1.27 | 84 | 1011.3 |
| 20260507140549 | 11 | 82 | 0.0 | 4.8 | 0.00 | 1.27 | 1.27 | 83 | 1011.3 |
| 20260507140029 | 11 | 74 | 1.6 | 4.8 | 0.00 | 1.27 | 1.27 | 83 | 1011.3 |
| 20260507135507 | 11 | 92 | 0.0 | 4.8 | 0.00 | 1.27 | 1.27 | 83 | 1011.3 |
| 20260507135043 | 11 | 86 | 0.0 | 4.8 | 0.00 | 1.27 | 1.27 | 84 | 1011.3 |
| 20260507134520 | 11 | 74 | 0.0 | 4.8 | 0.00 | 1.27 | 1.27 | 84 | 1011.3 |
| 20260507134058 | 11 | 360 | 0.0 | 4.8 | 0.00 | 1.27 | 1.27 | 84 | 1011.3 |
| 20260507134001 | 11 | 355 | 0.0 | 1.6 | 0.00 | 1.27 | 1.27 | 84 | 1011.3 |
| 20260507133523 | 11 | 47 | 0.0 | 3.2 | 0.00 | 1.27 | 1.27 | 84 | 1011.3 |
| 20260507133105 | 11 | 22 | 0.0 | 3.2 | 0.00 | 1.27 | 1.27 | 84 | 1011.3 |
| 20260507133001 | 11 | 63 | 0.0 | 3.2 | 0.00 | 1.27 | 1.27 | 84 | 1011.4 |
| 20260507132535 | 11 | 78 | 0.0 | 4.8 | 0.00 | 1.27 | 1.27 | 84 | 1011.3 |
| 20260507132015 | 11 | 350 | 0.0 | 4.8 | 0.00 | 1.27 | 1.27 | 84 | 1011.3 |
| 20260507131545 | 11 | 350 | 0.0 | 3.2 | 0.00 | 1.27 | 1.27 | 85 | 1011.3 |
| 20260507131021 | 11 | 312 | 0.0 | 1.6 | 0.00 | 1.27 | 1.27 | 86 | 1011.4 |
| 20260507130550 | 10 | 312 | 0.0 | 4.8 | 0.00 | 1.27 | 1.27 | 85 | 1011.5 |
| 20260507130028 | 10 | 263 | 1.6 | 4.8 | 0.00 | 1.27 | 1.27 | 85 | 1011.5 |
| 20260507125509 | 10 | 67 | 0.0 | 1.6 | 0.00 | 1.27 | 1.27 | 85 | 1011.5 |
| 20260507125030 | 10 | 288 | 0.0 | 0.0 | 0.00 | 1.27 | 1.27 | 85 | 1011.5 |
| 20260507124548 | 10 | 287 | 0.0 | 0.0 | 0.00 | 1.45 | 1.27 | 86 | 1011.4 |
| 20260507124009 | 10 | 287 | 0.0 | 0.0 | 0.00 | 1.45 | 1.27 | 86 | 1011.5 |
| 20260507123545 | 10 | 287 | 0.0 | 0.0 | 0.00 | 1.45 | 1.27 | 86 | 1011.4 |
| 20260507123006 | 10 | 287 | 0.0 | 0.0 | 0.00 | 1.45 | 1.27 | 86 | 1011.3 |
| 20260507122542 | 10 | 287 | 0.0 | 1.6 | 0.00 | 1.45 | 1.27 | 86 | 1011.3 |
| 20260507122005 | 10 | 287 | 0.0 | 1.6 | 0.00 | 1.45 | 1.27 | 86 | 1011.3 |
| 20260507121527 | 10 | 287 | 0.0 | 1.6 | 0.00 | 1.45 | 1.27 | 86 | 1011.2 |
| 20260507121058 | 10 | 5 | 0.0 | 3.2 | 0.00 | 1.45 | 1.27 | 87 | 1011.0 |
| 20260507121005 | 10 | 5 | 0.0 | 3.2 | 0.00 | 1.45 | 1.27 | 86 | 1010.9 |
| 20260507120540 | 10 | 29 | 0.0 | 3.2 | 0.00 | 1.45 | 1.27 | 86 | 1010.8 |
| 20260507120036 | 10 | 145 | 0.0 | 1.6 | 0.00 | 1.45 | 1.27 | 87 | 1010.9 |
| 20260507115551 | 10 | 145 | 0.0 | 1.6 | 0.00 | 1.45 | 1.27 | 87 | 1010.9 |
| 20260507115026 | 10 | 103 | 0.0 | 1.6 | 0.00 | 1.45 | 1.27 | 87 | 1010.9 |
| 20260507114615 | 10 | 103 | 0.0 | 1.6 | 0.00 | 1.50 | 1.27 | 87 | 1010.9 |
| 20260507114505 | 10 | 103 | 0.0 | 1.6 | 0.00 | 1.50 | 1.27 | 88 | 1010.9 |
| 20260507114034 | 10 | 107 | 0.0 | 1.6 | 0.00 | 1.50 | 1.27 | 88 | 1010.9 |
| 20260507113514 | 10 | 98 | 0.0 | 1.6 | 0.00 | 1.50 | 1.27 | 88 | 1010.7 |
| 20260507113041 | 10 | 98 | 0.0 | 1.6 | 0.00 | 1.50 | 1.27 | 88 | 1010.7 |
| 20260507112515 | 10 | 98 | 0.0 | 1.6 | 0.00 | 1.50 | 1.27 | 88 | 1010.9 |
| 20260507112036 | 10 | 98 | 0.0 | 0.0 | 0.00 | 1.50 | 1.27 | 90 | 1010.8 |
| 20260507111517 | 10 | 98 | 0.0 | 0.0 | 0.00 | 1.50 | 1.27 | 90 | 1010.7 |
| 20260507111048 | 10 | 98 | 0.0 | 0.0 | 0.00 | 1.50 | 1.27 | 91 | 1010.8 |
| 20260507110526 | 10 | 98 | 0.0 | 0.0 | 0.00 | 1.50 | 1.27 | 91 | 1010.5 |
| 20260507110007 | 10 | 98 | 0.0 | 0.0 | 0.00 | 1.50 | 1.27 | 90 | 1010.4 |
| 20260507105536 | 10 | 98 | 0.0 | 0.0 | 0.00 | 1.50 | 1.27 | 91 | 1010.4 |
| 20260507105054 | 10 | 98 | 0.0 | 0.0 | 0.00 | 1.50 | 1.27 | 91 | 1010.3 |
| 20260507104531 | 10 | 98 | 0.0 | 0.0 | 0.00 | 1.50 | 1.27 | 90 | 1010.3 |
| 20260507104009 | 10 | 98 | 0.0 | 0.0 | 0.00 | 1.50 | 1.27 | 90 | 1010.2 |
| 20260507103531 | 10 | 98 | 0.0 | 0.0 | 0.00 | 1.50 | 1.27 | 90 | 1010.1 |
| 20260507103010 | 10 | 98 | 0.0 | 0.0 | 0.00 | 1.50 | 1.27 | 91 | 1010.3 |
| 20260507102550 | 10 | 98 | 0.0 | 0.0 | 0.00 | 1.50 | 1.27 | 91 | 1010.4 |
| 20260507102036 | 10 | 98 | 0.0 | 0.0 | 0.00 | 1.50 | 1.27 | 91 | 1010.3 |
| 20260507101521 | 10 | 99 | 0.0 | 0.0 | 0.00 | 1.50 | 1.27 | 91 | 1010.3 |
| 20260507101006 | 10 | 99 | 0.0 | 0.0 | 0.00 | 1.50 | 1.27 | 89 | 1010.4 |
| 20260507100530 | 10 | 99 | 0.0 | 0.0 | 0.00 | 1.50 | 1.27 | 89 | 1010.4 |
| 20260507100053 | 10 | 99 | 0.0 | 0.0 | 0.00 | 1.50 | 1.27 | 89 | 1010.3 |
| 20260507095532 | 10 | 93 | 0.0 | 0.0 | 0.00 | 1.50 | 1.27 | 90 | 1010.2 |
| 20260507095018 | 10 | 93 | 0.0 | 0.0 | 0.00 | 1.50 | 1.27 | 89 | 1010.0 |
| 20260507094549 | 10 | 93 | 0.0 | 0.0 | 0.00 | 1.50 | 1.27 | 90 | 1010.1 |
| 20260507094026 | 10 | 93 | 0.0 | 0.0 | 0.00 | 1.50 | 1.27 | 89 | 1010.0 |
| 20260507093510 | 10 | 93 | 0.0 | 0.0 | 0.00 | 1.50 | 1.27 | 90 | 1010.2 |
| 20260507093048 | 10 | 93 | 0.0 | 0.0 | 0.00 | 1.50 | 1.27 | 91 | 1010.0 |
| 20260507092514 | 10 | 93 | 0.0 | 0.0 | 0.00 | 1.50 | 1.27 | 90 | 1010.1 |
| 20260507092039 | 10 | 93 | 0.0 | 0.0 | 0.00 | 1.50 | 1.27 | 91 | 1010.0 |
| 20260507091506 | 10 | 93 | 0.0 | 0.0 | 0.00 | 1.50 | 1.27 | 91 | 1009.9 |
| 20260507091034 | 10 | 93 | 0.0 | 0.0 | 0.00 | 1.50 | 1.27 | 92 | 1010.0 |
| 20260507090510 | 10 | 93 | 0.0 | 0.0 | 0.00 | 1.50 | 1.27 | 91 | 1010.1 |
| 20260507090030 | 10 | 93 | 0.0 | 1.6 | 0.00 | 1.50 | 1.27 | 92 | 1010.0 |
| 20260507085546 | 10 | 93 | 0.0 | 1.6 | 0.00 | 1.50 | 1.27 | 91 | 1009.9 |
| 20260507085008 | 10 | 93 | 0.0 | 3.2 | 0.00 | 1.50 | 1.27 | 90 | 1009.7 |
| 20260507084536 | 10 | 93 | 0.0 | 3.2 | 0.00 | 1.50 | 1.27 | 91 | 1009.7 |
| 20260507084012 | 10 | 93 | 0.0 | 3.2 | 0.00 | 1.50 | 1.27 | 91 | 1009.7 |
| 20260507083532 | 10 | 74 | 0.0 | 1.6 | 0.00 | 1.50 | 1.27 | 90 | 1009.6 |
| 20260507083050 | 10 | 74 | 0.0 | 1.6 | 0.00 | 1.50 | 1.27 | 90 | 1009.7 |
| 20260507082517 | 10 | 75 | 0.0 | 1.6 | 0.00 | 1.50 | 1.27 | 90 | 1009.7 |
| 20260507082048 | 10 | 75 | 0.0 | 4.8 | 0.00 | 1.50 | 1.27 | 91 | 1009.9 |
| 20260507081506 | 11 | 75 | 1.6 | 4.8 | 0.00 | 1.50 | 1.27 | 90 | 1009.8 |
| 20260507081026 | 11 | 54 | 0.0 | 3.2 | 0.00 | 1.50 | 1.27 | 91 | 1010.0 |
| 20260507080544 | 11 | 93 | 0.0 | 3.2 | 0.00 | 1.50 | 1.27 | 91 | 1010.1 |
| 20260507080018 | 11 | 5 | 0.0 | 3.2 | 0.00 | 1.50 | 1.27 | 91 | 1010.2 |
| 20260507075540 | 11 | 131 | 0.0 | 1.6 | 0.00 | 1.50 | 1.27 | 92 | 1010.0 |
| 20260507075058 | 11 | 100 | 0.0 | 1.6 | 0.00 | 1.50 | 1.27 | 91 | 1009.9 |
| 20260507074529 | 11 | 83 | 0.0 | 1.6 | 0.00 | 1.50 | 1.27 | 91 | 1009.9 |
| 20260507074055 | 11 | 83 | 0.0 | 3.2 | 0.00 | 1.50 | 1.27 | 91 | 1009.9 |
| 20260507073514 | 11 | 83 | 0.0 | 3.2 | 0.00 | 1.50 | 1.27 | 90 | 1009.9 |
| 20260507073034 | 11 | 16 | 0.0 | 1.6 | 0.00 | 1.50 | 1.27 | 91 | 1009.7 |
| 20260507072550 | 11 | 16 | 0.0 | 1.6 | 0.00 | 1.50 | 1.27 | 91 | 1009.6 |
| 20260507072023 | 11 | 15 | 0.0 | 3.2 | 0.00 | 1.50 | 1.27 | 91 | 1009.3 |
| 20260507071558 | 11 | 15 | 0.0 | 6.4 | 0.00 | 1.50 | 1.27 | 91 | 1009.2 |
| 20260507071032 | 11 | 80 | 1.6 | 6.4 | 0.00 | 1.50 | 1.27 | 91 | 1009.2 |
| 20260507070516 | 11 | 30 | 0.0 | 3.2 | 0.00 | 1.50 | 1.27 | 92 | 1009.3 |
| 20260507070048 | 11 | 332 | 0.0 | 4.8 | 0.00 | 1.50 | 1.27 | 92 | 1009.4 |
| 20260507065525 | 11 | 5 | 0.0 | 4.8 | 0.00 | 1.50 | 1.27 | 92 | 1009.2 |
| 20260507065005 | 12 | 58 | 1.6 | 6.4 | 0.00 | 1.50 | 1.27 | 92 | 1009.2 |
| 20260507064524 | 12 | 75 | 1.6 | 6.4 | 0.00 | 1.50 | 1.27 | 92 | 1009.0 |
| 20260507064100 | 12 | 67 | 0.0 | 3.2 | 0.00 | 1.50 | 1.27 | 93 | 1009.2 |
| 20260507064004 | 12 | 67 | 0.0 | 3.2 | 0.00 | 1.50 | 1.27 | 93 | 1009.2 |
| 20260507063540 | 12 | 147 | 0.0 | 4.8 | 0.00 | 1.50 | 1.27 | 93 | 1009.3 |
| 20260507063016 | 12 | 67 | 0.0 | 3.2 | 0.00 | 1.50 | 1.27 | 93 | 1009.2 |
| 20260507062551 | 12 | 59 | 0.0 | 3.2 | 0.00 | 1.50 | 1.27 | 93 | 1009.3 |
| 20260507062022 | 12 | 74 | 0.0 | 4.8 | 0.00 | 1.50 | 1.27 | 94 | 1009.2 |
| 20260507061506 | 12 | 107 | 0.0 | 4.8 | 0.00 | 1.50 | 1.27 | 93 | 1009.1 |
| 20260507061044 | 12 | 83 | 0.0 | 3.2 | 0.00 | 1.50 | 1.27 | 94 | 1009.0 |
| 20260507060525 | 12 | 83 | 0.0 | 3.2 | 0.00 | 1.50 | 1.27 | 94 | 1009.0 |
| 20260507060006 | 12 | 83 | 0.0 | 1.6 | 0.00 | 1.50 | 1.27 | 94 | 1009.3 |
| 20260507055545 | 12 | 83 | 0.0 | 3.2 | 0.00 | 1.50 | 1.27 | 94 | 1009.6 |
| 20260507055032 | 12 | 76 | 0.0 | 3.2 | 0.00 | 1.50 | 1.27 | 94 | 1009.4 |
| 20260507054515 | 12 | 69 | 0.0 | 4.8 | 0.00 | 1.50 | 1.27 | 93 | 1009.5 |
| 20260507054051 | 12 | 84 | 0.0 | 4.8 | 0.00 | 1.50 | 1.27 | 94 | 1009.4 |
| 20260507053526 | 12 | 152 | 0.0 | 4.8 | 0.03 | 1.50 | 1.27 | 94 | 1009.6 |
| 20260507053044 | 12 | 101 | 1.6 | 4.8 | 0.03 | 1.50 | 1.27 | 94 | 1009.6 |
| 20260507052529 | 12 | 186 | 1.6 | 4.8 | 0.03 | 1.50 | 1.27 | 94 | 1009.3 |
| 20260507052053 | 12 | 120 | 0.0 | 4.8 | 0.03 | 1.50 | 1.27 | 94 | 1008.9 |
| 20260507051538 | 13 | 90 | 0.0 | 4.8 | 0.03 | 1.50 | 1.27 | 94 | 1009.0 |
| 20260507051059 | 13 | 93 | 0.0 | 3.2 | 0.03 | 1.50 | 1.27 | 94 | 1009.1 |
| 20260507050521 | 13 | 165 | 0.0 | 4.8 | 0.03 | 1.50 | 1.27 | 94 | 1008.9 |
| 20260507050059 | 13 | 13 | 0.0 | 6.4 | 0.03 | 1.50 | 1.27 | 94 | 1009.0 |
| 20260507045524 | 13 | 293 | 1.6 | 6.4 | 0.03 | 1.50 | 1.27 | 94 | 1008.7 |
| 20260507045100 | 13 | 261 | 0.0 | 4.8 | 0.03 | 1.50 | 1.27 | 95 | 1008.5 |
| 20260507045002 | 13 | 292 | 0.0 | 4.8 | 0.03 | 1.50 | 1.27 | 95 | 1008.5 |
| 20260507044523 | 13 | 355 | 0.0 | 8.0 | 0.05 | 1.50 | 1.27 | 95 | 1008.5 |
| 20260507044059 | 14 | 351 | 1.6 | 8.0 | 0.10 | 1.50 | 1.27 | 95 | 1008.4 |
| 20260507044002 | 14 | 321 | 3.2 | 8.0 | 0.10 | 1.50 | 1.27 | 95 | 1008.4 |
| 20260507043525 | 14 | 332 | 1.6 | 4.8 | 0.10 | 1.45 | 1.24 | 95 | 1008.2 |
| 20260507043047 | 14 | 305 | 0.0 | 4.8 | 0.13 | 1.45 | 1.24 | 95 | 1008.0 |
| 20260507042527 | 14 | 332 | 1.6 | 4.8 | 0.13 | 1.45 | 1.24 | 95 | 1007.6 |
| 20260507042050 | 14 | 123 | 0.0 | 1.6 | 0.13 | 1.45 | 1.24 | 95 | 1007.0 |
| 20260507041541 | 15 | 115 | 0.0 | 3.2 | 0.13 | 1.45 | 1.24 | 95 | 1007.5 |
| 20260507041049 | 15 | 115 | 0.0 | 3.2 | 0.13 | 1.45 | 1.24 | 95 | 1007.7 |
| 20260507040530 | 15 | 206 | 1.6 | 4.8 | 0.15 | 1.45 | 1.24 | 95 | 1008.1 |
| 20260507040009 | 15 | 88 | 0.0 | 4.8 | 0.20 | 1.45 | 1.24 | 95 | 1008.3 |
| 20260507035526 | 15 | 222 | 0.0 | 3.2 | 0.28 | 1.45 | 1.24 | 95 | 1009.0 |
| 20260507035041 | 15 | 190 | 0.0 | 1.6 | 0.36 | 1.45 | 1.24 | 95 | 1008.9 |
| 20260507034527 | 15 | 245 | 0.0 | 1.6 | 0.41 | 1.42 | 1.22 | 95 | 1009.0 |
| 20260507034041 | 15 | 254 | 0.0 | 1.6 | 0.43 | 1.40 | 1.17 | 95 | 1009.1 |
| 20260507033521 | 15 | 254 | 0.0 | 1.6 | 0.41 | 1.35 | 1.12 | 95 | 1009.2 |
| 20260507033053 | 15 | 195 | 0.0 | 1.6 | 0.41 | 1.35 | 1.12 | 95 | 1008.8 |
| 20260507032556 | 15 | 175 | 0.0 | 1.6 | 0.41 | 1.35 | 1.12 | 95 | 1008.8 |
| 20260507032037 | 15 | 172 | 0.0 | 1.6 | 0.41 | 1.35 | 1.12 | 95 | 1008.7 |
| 20260507031556 | 15 | 172 | 0.0 | 0.0 | 0.43 | 1.35 | 1.12 | 95 | 1008.6 |
| 20260507031037 | 15 | 179 | 0.0 | 0.0 | 0.43 | 1.35 | 1.12 | 95 | 1008.5 |
| 20260507030556 | 15 | 95 | 0.0 | 3.2 | 0.41 | 1.32 | 1.09 | 95 | 1008.4 |
| 20260507030029 | 15 | 95 | 0.0 | 3.2 | 0.33 | 1.24 | 1.02 | 95 | 1008.2 |
| 20260507025517 | 15 | 148 | 0.0 | 1.6 | 0.28 | 1.19 | 0.97 | 95 | 1008.6 |
| 20260507025057 | 15 | 207 | 0.0 | 0.0 | 0.20 | 1.12 | 0.91 | 95 | 1008.4 |
| 20260507025001 | 15 | 207 | 0.0 | 0.0 | 0.18 | 1.09 | 0.89 | 95 | 1008.4 |
| 20260507024547 | 15 | 207 | 0.0 | 1.6 | 0.13 | 1.04 | 0.81 | 95 | 1008.6 |
| 20260507024018 | 15 | 207 | 0.0 | 1.6 | 0.03 | 0.94 | 0.71 | 94 | 1008.7 |
| 20260507023551 | 15 | 140 | 0.0 | 1.6 | 0.03 | 0.94 | 0.71 | 94 | 1008.4 |
| 20260507023035 | 15 | 140 | 0.0 | 3.2 | 0.03 | 0.94 | 0.71 | 94 | 1008.3 |
| 20260507022521 | 15 | 234 | 0.0 | 3.2 | 0.03 | 0.94 | 0.71 | 94 | 1008.3 |
| 20260507022050 | 15 | 94 | 0.0 | 3.2 | 0.03 | 0.94 | 0.71 | 94 | 1007.9 |
| 20260507021535 | 15 | 94 | 0.0 | 3.2 | 0.00 | 0.91 | 0.69 | 94 | 1007.5 |
| 20260507021019 | 15 | 121 | 0.0 | 1.6 | 0.00 | 0.91 | 0.69 | 93 | 1007.8 |
| 20260507020559 | 15 | 101 | 0.0 | 1.6 | 0.00 | 0.91 | 0.69 | 93 | 1007.7 |
| 20260507020503 | 15 | 102 | 0.0 | 1.6 | 0.00 | 0.91 | 0.69 | 93 | 1007.7 |
| 20260507020038 | 15 | 105 | 0.0 | 0.0 | 0.00 | 0.91 | 0.69 | 94 | 1007.7 |
| 20260507015519 | 15 | 161 | 0.0 | 0.0 | 0.00 | 0.91 | 0.69 | 94 | 1008.0 |
| 20260507015058 | 15 | 161 | 0.0 | 0.0 | 0.00 | 0.91 | 0.69 | 94 | 1008.0 |
| 20260507014535 | 16 | 161 | 0.0 | 0.0 | 0.00 | 0.91 | 0.69 | 93 | 1007.9 |
| 20260507014013 | 16 | 161 | 0.0 | 0.0 | 0.00 | 0.91 | 0.69 | 93 | 1007.8 |
| 20260507013547 | 16 | 98 | 0.0 | 0.0 | 0.00 | 0.91 | 0.69 | 92 | 1007.6 |
| 20260507013031 | 16 | 98 | 0.0 | 1.6 | 0.00 | 0.91 | 0.69 | 92 | 1007.4 |
| 20260507012505 | 16 | 98 | 0.0 | 1.6 | 0.03 | 0.91 | 0.69 | 92 | 1007.1 |
| 20260507012043 | 16 | 95 | 0.0 | 3.2 | 0.05 | 0.91 | 0.69 | 92 | 1007.1 |
| 20260507011518 | 16 | 88 | 0.0 | 3.2 | 0.08 | 0.91 | 0.69 | 92 | 1007.1 |
| 20260507011055 | 16 | 88 | 0.0 | 4.8 | 0.13 | 0.91 | 0.69 | 92 | 1007.1 |
| 20260507010535 | 16 | 82 | 1.6 | 4.8 | 0.18 | 0.91 | 0.69 | 92 | 1007.2 |
| 20260507010027 | 16 | 89 | 1.6 | 4.8 | 0.28 | 0.91 | 0.69 | 91 | 1007.6 |
| 20260507005549 | 16 | 83 | 0.0 | 3.2 | 0.36 | 0.91 | 0.69 | 91 | 1007.7 |
| 20260507005026 | 16 | 86 | 0.0 | 3.2 | 0.46 | 0.91 | 0.69 | 91 | 1007.8 |
| 20260507004503 | 17 | 75 | 0.0 | 3.2 | 0.56 | 0.91 | 0.69 | 91 | 1007.8 |
| 20260507004043 | 17 | 92 | 0.0 | 4.8 | 0.64 | 0.91 | 0.69 | 92 | 1007.8 |
| 20260507003519 | 17 | 154 | 0.0 | 4.8 | 0.66 | 0.91 | 0.69 | 91 | 1008.0 |
| 20260507003057 | 17 | 84 | 1.6 | 4.8 | 0.66 | 0.91 | 0.69 | 91 | 1007.7 |
| 20260507002535 | 17 | 102 | 0.0 | 4.8 | 0.64 | 0.89 | 0.66 | 92 | 1007.7 |
| 20260507002013 | 17 | 92 | 0.0 | 1.6 | 0.61 | 0.86 | 0.64 | 91 | 1007.7 |
| 20260507001608 | 17 | 107 | 0.0 | 4.8 | 0.58 | 0.84 | 0.61 | 91 | 1007.7 |
| 20260507001029 | 17 | 113 | 1.6 | 4.8 | 0.53 | 0.79 | 0.56 | 91 | 1007.5 |
| 20260507000503 | 17 | 92 | 0.0 | 3.2 | 0.46 | 0.71 | 0.48 | 91 | 1007.5 |
| 20260507000041 | 17 | 92 | 0.0 | 3.2 | 0.41 | 0.66 | 0.43 | 90 | 1007.6 |
| 20260506235519 | 18 | 211 | 0.0 | 4.8 | 0.28 | 0.53 | 0.33 | 89 | 1007.5 |
| 20260506235053 | 18 | 186 | 3.2 | 4.8 | 0.20 | 0.46 | 0.23 | 87 | 1007.3 |
| 20260506234534 | 19 | 140 | 0.0 | 4.8 | 0.10 | 0.36 | 0.15 | 85 | 1007.1 |
| 20260506234050 | 19 | 40 | 0.0 | 0.0 | 0.00 | 0.25 | 0.05 | 82 | 1007.1 |
| 20260506233535 | 20 | 86 | 0.0 | 0.0 | 0.00 | 0.25 | 0.03 | 80 | 1006.5 |
| 20260506233020 | 20 | 111 | 0.0 | 0.0 | 0.00 | 0.25 | 0.03 | 79 | 1006.7 |
| 20260506232506 | 20 | 198 | 0.0 | 1.6 | 0.00 | 0.25 | 0.03 | 80 | 1006.7 |
| 20260506232046 | 20 | 225 | 0.0 | 0.0 | 0.00 | 0.25 | 0.03 | 80 | 1006.6 |
| 20260506231536 | 20 | 188 | 0.0 | 3.2 | 0.00 | 0.25 | 0.03 | 80 | 1006.4 |
| 20260506231025 | 20 | 201 | 0.0 | 3.2 | 0.00 | 0.25 | 0.03 | 80 | 1006.5 |
| 20260506230547 | 20 | 337 | 0.0 | 1.6 | 0.00 | 0.25 | 0.03 | 80 | 1006.3 |
| 20260506230032 | 20 | 335 | 0.0 | 1.6 | 0.00 | 0.25 | 0.03 | 82 | 1006.4 |